| time (UTC) | temp F | wind direction | speed MPH | gust MPH | rain 1hr in | rain 24hr in | rain mn in | humidity % | barometer mb |
| 20260506035837 | 44 | 294 | 0.0 | 1.0 | 0.00 | 0.00 | 0.00 | 66 | 1011.3 |
| 20260506035351 | 44 | 294 | 0.0 | 1.0 | 0.00 | 0.00 | 0.00 | 66 | 1011.2 |
| 20260506034825 | 44 | 294 | 0.0 | 1.0 | 0.00 | 0.00 | 0.00 | 67 | 1011.2 |
| 20260506034337 | 44 | 294 | 0.0 | 1.0 | 0.00 | 0.00 | 0.00 | 67 | 1011.2 |
| 20260506033826 | 44 | 294 | 0.0 | 1.0 | 0.00 | 0.00 | 0.00 | 67 | 1011.2 |
| 20260506033320 | 44 | 284 | 0.0 | 1.0 | 0.00 | 0.00 | 0.00 | 66 | 1011.2 |
| 20260506032835 | 45 | 284 | 0.0 | 1.0 | 0.00 | 0.00 | 0.00 | 66 | 1011.2 |
| 20260506032328 | 45 | 285 | 0.0 | 1.0 | 0.00 | 0.00 | 0.00 | 66 | 1011.4 |
| 20260506031824 | 45 | 284 | 0.0 | 1.0 | 0.00 | 0.00 | 0.00 | 65 | 1011.5 |
| 20260506031401 | 45 | 279 | 0.0 | 1.0 | 0.00 | 0.00 | 0.00 | 66 | 1011.4 |
| 20260506030828 | 46 | 279 | 0.0 | 0.0 | 0.00 | 0.00 | 0.00 | 65 | 1011.4 |
| 20260506030322 | 46 | 279 | 0.0 | 0.0 | 0.00 | 0.00 | 0.00 | 65 | 1011.3 |
| 20260506025855 | 45 | 279 | 0.0 | 1.0 | 0.00 | 0.00 | 0.00 | 65 | 1011.2 |
| 20260506025339 | 46 | 279 | 0.0 | 1.0 | 0.00 | 0.00 | 0.00 | 65 | 1011.1 |
| 20260506024828 | 45 | 279 | 0.0 | 1.0 | 0.00 | 0.00 | 0.00 | 65 | 1011.1 |
| 20260506024323 | 45 | 279 | 0.0 | 1.0 | 0.00 | 0.00 | 0.00 | 65 | 1011.1 |
| 20260506023817 | 45 | 279 | 0.0 | 2.0 | 0.00 | 0.00 | 0.00 | 64 | 1010.9 |
| 20260506023333 | 45 | 279 | 0.0 | 3.0 | 0.00 | 0.00 | 0.00 | 64 | 1010.9 |
| 20260506022829 | 46 | 279 | 1.0 | 3.0 | 0.00 | 0.00 | 0.00 | 64 | 1010.8 |
| 20260506022333 | 46 | 279 | 2.0 | 3.0 | 0.00 | 0.00 | 0.00 | 63 | 1010.8 |
| 20260506021830 | 46 | 275 | 1.0 | 2.0 | 0.00 | 0.00 | 0.00 | 64 | 1010.6 |
| 20260506021341 | 46 | 252 | 1.0 | 2.0 | 0.00 | 0.00 | 0.00 | 63 | 1010.5 |
| 20260506020835 | 46 | 232 | 1.0 | 2.0 | 0.00 | 0.00 | 0.00 | 63 | 1010.3 |
| 20260506020328 | 46 | 227 | 1.0 | 2.0 | 0.00 | 0.00 | 0.00 | 62 | 1010.4 |
| 20260506015819 | 46 | 212 | 1.0 | 1.0 | 0.00 | 0.00 | 0.00 | 62 | 1010.3 |
| 20260506015332 | 47 | 212 | 0.0 | 0.0 | 0.00 | 0.00 | 0.00 | 61 | 1010.2 |
| 20260506014829 | 46 | 212 | 0.0 | 1.0 | 0.00 | 0.00 | 0.00 | 61 | 1010.2 |
| 20260506014319 | 46 | 212 | 0.0 | 1.0 | 0.00 | 0.00 | 0.00 | 61 | 1010.1 |
| 20260506013830 | 46 | 212 | 0.0 | 1.0 | 0.00 | 0.00 | 0.00 | 61 | 1010.2 |
| 20260506013324 | 46 | 213 | 0.0 | 2.0 | 0.00 | 0.00 | 0.00 | 60 | 1010.1 |
| 20260506012821 | 46 | 213 | 1.0 | 2.0 | 0.00 | 0.00 | 0.00 | 60 | 1010.1 |
| 20260506012331 | 46 | 239 | 1.0 | 2.0 | 0.00 | 0.00 | 0.00 | 60 | 1010.0 |
| 20260506011845 | 46 | 239 | 1.0 | 2.0 | 0.00 | 0.00 | 0.00 | 60 | 1009.8 |
| 20260506011320 | 46 | 239 | 0.0 | 2.0 | 0.00 | 0.00 | 0.00 | 60 | 1009.9 |
| 20260506010858 | 46 | 218 | 0.0 | 1.0 | 0.00 | 0.00 | 0.00 | 59 | 1009.8 |
| 20260506010358 | 46 | 219 | 0.0 | 2.0 | 0.00 | 0.00 | 0.00 | 59 | 1009.7 |
| 20260506005826 | 46 | 218 | 0.0 | 3.0 | 0.00 | 0.00 | 0.00 | 58 | 1009.7 |
| 20260506005332 | 46 | 218 | 1.0 | 3.0 | 0.00 | 0.00 | 0.00 | 58 | 1009.8 |
| 20260506004824 | 47 | 223 | 2.0 | 3.0 | 0.00 | 0.00 | 0.00 | 57 | 1009.7 |
| 20260506004319 | 47 | 205 | 1.0 | 3.0 | 0.00 | 0.00 | 0.00 | 56 | 1009.8 |
| 20260506003833 | 47 | 231 | 1.0 | 3.0 | 0.00 | 0.00 | 0.00 | 56 | 1009.6 |
| 20260506003348 | 47 | 236 | 1.0 | 4.0 | 0.00 | 0.00 | 0.00 | 57 | 1009.7 |
| 20260506002839 | 47 | 234 | 1.0 | 4.0 | 0.00 | 0.00 | 0.00 | 57 | 1009.7 |
| 20260506002324 | 47 | 157 | 1.0 | 5.0 | 0.00 | 0.00 | 0.00 | 57 | 1009.7 |
| 20260506001838 | 47 | 219 | 3.0 | 5.0 | 0.00 | 0.00 | 0.00 | 56 | 1009.7 |
| 20260506001335 | 48 | 213 | 2.0 | 5.0 | 0.00 | 0.00 | 0.00 | 56 | 1009.8 |
| 20260506000830 | 48 | 202 | 1.0 | 5.0 | 0.00 | 0.00 | 0.00 | 56 | 1009.6 |
| 20260506000326 | 48 | 227 | 1.0 | 5.0 | 0.00 | 0.00 | 0.00 | 58 | 1009.7 |
| 20260505235817 | 48 | 207 | 2.0 | 6.0 | 0.00 | 0.00 | 0.00 | 56 | 1009.8 |
| 20260505235315 | 48 | 243 | 2.0 | 6.0 | 0.00 | 0.00 | 0.00 | 57 | 1009.8 |
| 20260505234833 | 48 | 221 | 2.0 | 4.0 | 0.00 | 0.00 | 0.00 | 57 | 1009.8 |
| 20260505234327 | 48 | 217 | 2.0 | 5.0 | 0.00 | 0.00 | 0.00 | 57 | 1009.7 |
| 20260505233823 | 48 | 183 | 2.0 | 6.0 | 0.00 | 0.00 | 0.00 | 56 | 1009.8 |
| 20260505233336 | 48 | 243 | 4.0 | 6.0 | 0.00 | 0.00 | 0.00 | 56 | 1009.8 |
| 20260505232841 | 48 | 215 | 3.0 | 8.0 | 0.00 | 0.00 | 0.00 | 55 | 1009.6 |
| 20260505232337 | 49 | 225 | 4.0 | 8.0 | 0.00 | 0.00 | 0.00 | 55 | 1009.6 |
| 20260505231833 | 49 | 266 | 2.0 | 6.0 | 0.00 | 0.00 | 0.00 | 55 | 1009.6 |
| 20260505231325 | 50 | 210 | 3.0 | 6.0 | 0.00 | 0.00 | 0.00 | 54 | 1009.6 |
| 20260505230839 | 49 | 202 | 3.0 | 7.0 | 0.00 | 0.00 | 0.00 | 55 | 1009.5 |
| 20260505230322 | 49 | 223 | 2.0 | 8.0 | 0.00 | 0.00 | 0.00 | 55 | 1009.4 |
| 20260505225833 | 49 | 224 | 3.0 | 8.0 | 0.00 | 0.00 | 0.00 | 56 | 1009.4 |
| 20260505225326 | 49 | 211 | 3.0 | 5.0 | 0.00 | 0.00 | 0.00 | 56 | 1009.4 |
| 20260505224822 | 49 | 203 | 3.0 | 5.0 | 0.00 | 0.00 | 0.00 | 55 | 1009.5 |
| 20260505224332 | 50 | 211 | 3.0 | 5.0 | 0.00 | 0.00 | 0.00 | 55 | 1009.5 |
| 20260505223818 | 50 | 272 | 2.0 | 5.0 | 0.00 | 0.00 | 0.00 | 56 | 1009.5 |
| 20260505223329 | 50 | 200 | 3.0 | 6.0 | 0.00 | 0.00 | 0.00 | 57 | 1009.4 |
| 20260505222854 | 50 | 209 | 3.0 | 6.0 | 0.00 | 0.00 | 0.00 | 57 | 1009.5 |
| 20260505222322 | 50 | 213 | 2.0 | 7.0 | 0.00 | 0.00 | 0.00 | 56 | 1009.4 |
| 20260505221819 | 50 | 195 | 3.0 | 8.0 | 0.00 | 0.00 | 0.00 | 55 | 1009.5 |
| 20260505221338 | 50 | 190 | 3.0 | 8.0 | 0.00 | 0.00 | 0.00 | 56 | 1009.4 |
| 20260505220828 | 50 | 232 | 2.0 | 6.0 | 0.00 | 0.00 | 0.00 | 56 | 1009.4 |
| 20260505220321 | 50 | 217 | 3.0 | 8.0 | 0.00 | 0.00 | 0.00 | 55 | 1009.4 |
| 20260505215834 | 50 | 148 | 4.0 | 8.0 | 0.00 | 0.00 | 0.00 | 54 | 1009.4 |
| 20260505215320 | 50 | 247 | 4.0 | 8.0 | 0.00 | 0.00 | 0.00 | 55 | 1009.4 |
| 20260505214852 | 50 | 206 | 5.0 | 8.0 | 0.00 | 0.00 | 0.00 | 54 | 1009.3 |
| 20260505214320 | 50 | 202 | 3.0 | 9.0 | 0.00 | 0.00 | 0.00 | 56 | 1009.4 |
| 20260505213815 | 50 | 173 | 4.0 | 9.0 | 0.00 | 0.00 | 0.00 | 56 | 1009.3 |
| 20260505213332 | 50 | 238 | 6.0 | 10.0 | 0.00 | 0.00 | 0.00 | 55 | 1009.4 |
| 20260505212829 | 50 | 202 | 4.0 | 10.0 | 0.00 | 0.00 | 0.00 | 56 | 1009.3 |
| 20260505212318 | 50 | 242 | 5.0 | 10.0 | 0.00 | 0.00 | 0.00 | 57 | 1009.4 |
| 20260505211832 | 50 | 238 | 6.0 | 10.0 | 0.00 | 0.00 | 0.00 | 57 | 1009.4 |
| 20260505211326 | 50 | 200 | 6.0 | 10.0 | 0.00 | 0.00 | 0.00 | 58 | 1009.3 |
| 20260505210820 | 50 | 215 | 5.0 | 11.0 | 0.00 | 0.00 | 0.00 | 58 | 1009.5 |
| 20260505210336 | 49 | 224 | 7.0 | 11.0 | 0.00 | 0.00 | 0.00 | 57 | 1009.4 |
| 20260505205830 | 49 | 232 | 7.0 | 11.0 | 0.00 | 0.00 | 0.00 | 57 | 1009.5 |
| 20260505205326 | 49 | 224 | 6.0 | 11.0 | 0.00 | 0.00 | 0.00 | 60 | 1009.4 |
| 20260505204821 | 49 | 253 | 5.0 | 11.0 | 0.00 | 0.00 | 0.00 | 61 | 1009.4 |
| 20260505204332 | 48 | 230 | 5.0 | 10.0 | 0.00 | 0.00 | 0.00 | 61 | 1009.5 |
| 20260505203903 | 48 | 231 | 7.0 | 10.0 | 0.00 | 0.00 | 0.00 | 60 | 1009.6 |
| 20260505203326 | 48 | 218 | 6.0 | 10.0 | 0.00 | 0.00 | 0.00 | 62 | 1009.6 |
| 20260505202840 | 48 | 183 | 6.0 | 9.0 | 0.00 | 0.00 | 0.00 | 62 | 1009.6 |
| 20260505202332 | 48 | 227 | 5.0 | 10.0 | 0.00 | 0.00 | 0.00 | 62 | 1009.6 |
| 20260505201827 | 49 | 218 | 5.0 | 9.0 | 0.00 | 0.00 | 0.00 | 62 | 1009.7 |
| 20260505201336 | 49 | 170 | 4.0 | 10.0 | 0.00 | 0.00 | 0.00 | 63 | 1009.6 |
| 20260505200840 | 48 | 244 | 4.0 | 10.0 | 0.00 | 0.00 | 0.00 | 64 | 1009.6 |
| 20260505200328 | 48 | 204 | 7.0 | 10.0 | 0.00 | 0.00 | 0.00 | 62 | 1009.6 |
| 20260505195821 | 48 | 241 | 6.0 | 10.0 | 0.00 | 0.00 | 0.00 | 62 | 1009.7 |
| 20260505195335 | 48 | 264 | 8.0 | 10.0 | 0.00 | 0.00 | 0.00 | 61 | 1009.7 |
| 20260505194828 | 49 | 207 | 5.0 | 9.0 | 0.00 | 0.00 | 0.00 | 61 | 1009.6 |
| 20260505194324 | 49 | 227 | 5.0 | 8.0 | 0.00 | 0.00 | 0.00 | 61 | 1009.7 |
| 20260505193820 | 48 | 167 | 5.0 | 8.0 | 0.00 | 0.00 | 0.00 | 61 | 1009.4 |
| 20260505193356 | 48 | 207 | 5.0 | 8.0 | 0.00 | 0.00 | 0.00 | 61 | 1009.6 |
| 20260505192828 | 49 | 209 | 5.0 | 8.0 | 0.00 | 0.00 | 0.00 | 60 | 1009.5 |
| 20260505192340 | 49 | 192 | 5.0 | 9.0 | 0.00 | 0.00 | 0.00 | 60 | 1009.6 |
| 20260505191814 | 49 | 206 | 4.0 | 9.0 | 0.00 | 0.00 | 0.00 | 60 | 1009.4 |
| 20260505191331 | 49 | 246 | 4.0 | 8.0 | 0.00 | 0.00 | 0.00 | 61 | 1009.5 |
| 20260505190827 | 49 | 185 | 3.0 | 7.0 | 0.00 | 0.00 | 0.00 | 62 | 1009.4 |
| 20260505190319 | 48 | 126 | 5.0 | 8.0 | 0.00 | 0.00 | 0.00 | 58 | 1009.4 |
| 20260505185852 | 49 | 216 | 4.0 | 8.0 | 0.00 | 0.00 | 0.00 | 61 | 1009.3 |
| 20260505185336 | 48 | 200 | 5.0 | 8.0 | 0.00 | 0.00 | 0.00 | 60 | 1009.4 |
| 20260505184830 | 49 | 219 | 4.0 | 7.0 | 0.00 | 0.00 | 0.00 | 61 | 1009.4 |
| 20260505184347 | 48 | 241 | 3.0 | 6.0 | 0.00 | 0.00 | 0.00 | 63 | 1009.3 |
| 20260505183821 | 48 | 234 | 3.0 | 8.0 | 0.00 | 0.00 | 0.00 | 62 | 1009.2 |
| 20260505183330 | 48 | 217 | 5.0 | 8.0 | 0.00 | 0.00 | 0.00 | 61 | 1009.2 |
| 20260505182825 | 48 | 210 | 3.0 | 7.0 | 0.00 | 0.00 | 0.00 | 60 | 1009.3 |
| 20260505182340 | 48 | 167 | 4.0 | 7.0 | 0.00 | 0.00 | 0.00 | 61 | 1009.5 |
| 20260505181827 | 48 | 226 | 3.0 | 6.0 | 0.00 | 0.00 | 0.00 | 62 | 1009.4 |
| 20260505181324 | 48 | 218 | 4.0 | 8.0 | 0.00 | 0.00 | 0.00 | 61 | 1009.5 |
| 20260505180838 | 48 | 216 | 4.0 | 8.0 | 0.00 | 0.00 | 0.00 | 59 | 1009.4 |
| 20260505180324 | 48 | 239 | 4.0 | 6.0 | 0.00 | 0.00 | 0.00 | 59 | 1009.5 |
| 20260505175840 | 48 | 204 | 5.0 | 6.0 | 0.00 | 0.00 | 0.00 | 59 | 1009.5 |
| 20260505175330 | 48 | 270 | 4.0 | 6.0 | 0.00 | 0.00 | 0.00 | 58 | 1009.3 |
| 20260505174834 | 48 | 209 | 4.0 | 6.0 | 0.00 | 0.00 | 0.00 | 60 | 1009.0 |
| 20260505174330 | 48 | 213 | 4.0 | 7.0 | 0.00 | 0.00 | 0.00 | 61 | 1009.1 |
| 20260505173825 | 48 | 227 | 3.0 | 7.0 | 0.00 | 0.00 | 0.00 | 59 | 1008.9 |
| 20260505173316 | 48 | 208 | 3.0 | 6.0 | 0.00 | 0.00 | 0.00 | 59 | 1008.9 |
| 20260505172849 | 50 | 210 | 4.0 | 5.0 | 0.00 | 0.00 | 0.00 | 58 | 1008.8 |
| 20260505172325 | 50 | 259 | 3.0 | 8.0 | 0.00 | 0.00 | 0.00 | 58 | 1008.6 |
| 20260505171839 | 50 | 247 | 4.0 | 8.0 | 0.00 | 0.00 | 0.00 | 56 | 1008.8 |
| 20260505171335 | 50 | 230 | 4.0 | 5.0 | 0.00 | 0.00 | 0.00 | 56 | 1008.8 |
| 20260505170824 | 51 | 284 | 4.0 | 6.0 | 0.00 | 0.00 | 0.00 | 54 | 1008.8 |
| 20260505170352 | 51 | 260 | 3.0 | 6.0 | 0.00 | 0.00 | 0.00 | 56 | 1008.7 |
| 20260505165824 | 51 | 248 | 3.0 | 5.0 | 0.00 | 0.00 | 0.00 | 54 | 1008.8 |
| 20260505165336 | 51 | 262 | 3.0 | 5.0 | 0.00 | 0.00 | 0.00 | 58 | 1008.8 |
| 20260505164830 | 50 | 244 | 2.0 | 6.0 | 0.00 | 0.00 | 0.00 | 58 | 1008.7 |
| 20260505164327 | 50 | 283 | 3.0 | 6.0 | 0.00 | 0.00 | 0.00 | 56 | 1008.7 |
| 20260505163822 | 50 | 254 | 3.0 | 5.0 | 0.00 | 0.00 | 0.00 | 55 | 1008.8 |
| 20260505163334 | 50 | 266 | 3.0 | 5.0 | 0.00 | 0.00 | 0.00 | 56 | 1008.8 |
| 20260505162823 | 50 | 299 | 3.0 | 7.0 | 0.00 | 0.00 | 0.00 | 57 | 1008.8 |
| 20260505162315 | 50 | 271 | 3.0 | 7.0 | 0.00 | 0.00 | 0.00 | 57 | 1008.7 |
| 20260505161832 | 50 | 277 | 4.0 | 7.0 | 0.00 | 0.00 | 0.00 | 56 | 1008.8 |
| 20260505161326 | 49 | 263 | 3.0 | 5.0 | 0.00 | 0.00 | 0.00 | 58 | 1008.9 |
| 20260505160823 | 49 | 265 | 3.0 | 6.0 | 0.00 | 0.00 | 0.00 | 59 | 1009.0 |
| 20260505160332 | 49 | 285 | 3.0 | 7.0 | 0.00 | 0.00 | 0.00 | 57 | 1009.0 |
| 20260505153321 | 48 | 254 | 3.0 | 7.0 | 0.00 | 0.00 | 0.00 | 61 | 1008.8 |
| 20260505152817 | 48 | 276 | 3.0 | 7.0 | 0.00 | 0.00 | 0.00 | 58 | 1008.9 |
| 20260505152335 | 48 | 257 | 4.0 | 7.0 | 0.00 | 0.00 | 0.00 | 56 | 1009.1 |
| 20260505151825 | 48 | 229 | 2.0 | 7.0 | 0.00 | 0.00 | 0.00 | 58 | 1008.9 |
| 20260505151333 | 48 | 258 | 3.0 | 5.0 | 0.00 | 0.00 | 0.00 | 58 | 1008.9 |
| 20260505150824 | 48 | 274 | 3.0 | 6.0 | 0.00 | 0.00 | 0.00 | 58 | 1008.9 |
| 20260505150318 | 47 | 273 | 2.0 | 7.0 | 0.00 | 0.00 | 0.00 | 59 | 1009.0 |
| 20260505140329 | 46 | 279 | 2.0 | 5.0 | 0.00 | 0.00 | 0.00 | 59 | 1008.8 |
| 20260505124826 | 46 | 314 | 3.0 | 8.0 | 0.00 | 0.00 | 0.00 | 59 | 1008.6 |
| 20260505124354 | 46 | 319 | 4.0 | 8.0 | 0.00 | 0.00 | 0.00 | 59 | 1008.4 |
| 20260505123832 | 46 | 338 | 2.0 | 8.0 | 0.00 | 0.00 | 0.00 | 60 | 1007.8 |
| 20260505123317 | 46 | 287 | 2.0 | 8.0 | 0.00 | 0.00 | 0.00 | 61 | 1007.4 |
| 20260505122848 | 46 | 309 | 3.0 | 6.0 | 0.00 | 0.00 | 0.00 | 61 | 1007.2 |
| 20260505122344 | 46 | 294 | 2.0 | 6.0 | 0.00 | 0.00 | 0.00 | 60 | 1007.2 |
| 20260505121849 | 45 | 299 | 2.0 | 6.0 | 0.00 | 0.00 | 0.00 | 60 | 1006.9 |
| 20260505121341 | 45 | 328 | 3.0 | 6.0 | 0.00 | 0.00 | 0.00 | 60 | 1006.8 |
| 20260505120831 | 45 | 294 | 2.0 | 5.0 | 0.00 | 0.00 | 0.00 | 59 | 1006.8 |
| 20260505120337 | 45 | 305 | 1.0 | 5.0 | 0.00 | 0.00 | 0.00 | 60 | 1006.5 |
| 20260505115826 | 45 | 318 | 2.0 | 5.0 | 0.00 | 0.00 | 0.00 | 60 | 1006.8 |
| 20260505115322 | 45 | 284 | 2.0 | 5.0 | 0.00 | 0.00 | 0.00 | 62 | 1006.7 |
| 20260505114815 | 45 | 321 | 2.0 | 5.0 | 0.00 | 0.00 | 0.00 | 64 | 1006.8 |
| 20260505114353 | 45 | 295 | 1.0 | 4.0 | 0.00 | 0.00 | 0.00 | 63 | 1006.8 |
| 20260505113823 | 45 | 292 | 2.0 | 9.0 | 0.00 | 0.00 | 0.00 | 63 | 1006.8 |
| 20260505113319 | 45 | 260 | 4.0 | 9.0 | 0.00 | 0.00 | 0.00 | 64 | 1006.8 |
| 20260505112837 | 45 | 305 | 3.0 | 6.0 | 0.00 | 0.00 | 0.00 | 67 | 1006.7 |
| 20260505112331 | 45 | 279 | 2.0 | 6.0 | 0.00 | 0.00 | 0.00 | 69 | 1006.7 |
| 20260505111820 | 45 | 315 | 2.0 | 6.0 | 0.00 | 0.00 | 0.00 | 70 | 1006.7 |
| 20260505111318 | 45 | 282 | 3.0 | 7.0 | 0.00 | 0.00 | 0.00 | 70 | 1006.2 |
| 20260505110834 | 45 | 288 | 2.0 | 9.0 | 0.00 | 0.00 | 0.00 | 71 | 1006.2 |
| 20260505110321 | 45 | 342 | 3.0 | 9.0 | 0.00 | 0.00 | 0.00 | 70 | 1006.0 |
| 20260505101841 | 45 | 304 | 2.0 | 8.0 | 0.00 | 0.00 | 0.00 | 71 | 1005.4 |
| 20260505101350 | 45 | 309 | 3.0 | 9.0 | 0.00 | 0.00 | 0.00 | 72 | 1005.5 |
| 20260505100824 | 45 | 301 | 3.0 | 10.0 | 0.00 | 0.00 | 0.00 | 72 | 1005.4 |
| 20260505100351 | 45 | 309 | 4.0 | 13.0 | 0.00 | 0.00 | 0.00 | 72 | 1005.3 |
| 20260505095822 | 45 | 333 | 6.0 | 13.0 | 0.00 | 0.00 | 0.00 | 73 | 1005.4 |
| 20260505095329 | 44 | 292 | 4.0 | 11.0 | 0.00 | 0.00 | 0.00 | 73 | 1005.1 |
| 20260505094823 | 45 | 350 | 6.0 | 10.0 | 0.00 | 0.00 | 0.00 | 73 | 1005.0 |
| 20260505094337 | 45 | 302 | 4.0 | 9.0 | 0.00 | 0.00 | 0.00 | 73 | 1004.8 |
| 20260505093829 | 46 | 309 | 2.0 | 7.0 | 0.00 | 0.00 | 0.00 | 71 | 1004.6 |
| 20260505093324 | 46 | 282 | 3.0 | 7.0 | 0.00 | 0.00 | 0.00 | 67 | 1004.4 |
| 20260505092840 | 47 | 325 | 1.0 | 2.0 | 0.00 | 0.00 | 0.00 | 66 | 1004.2 |
| 20260505092328 | 47 | 34 | 0.0 | 2.0 | 0.00 | 0.00 | 0.00 | 64 | 1003.9 |
| 20260505091824 | 47 | 68 | 1.0 | 3.0 | 0.00 | 0.00 | 0.00 | 64 | 1003.8 |
| 20260505091335 | 47 | 66 | 1.0 | 3.0 | 0.00 | 0.00 | 0.00 | 64 | 1003.6 |
| 20260505090828 | 47 | 58 | 1.0 | 2.0 | 0.00 | 0.00 | 0.00 | 64 | 1003.7 |
| 20260505090324 | 48 | 61 | 1.0 | 3.0 | 0.00 | 0.00 | 0.00 | 64 | 1003.7 |
| 20260505085833 | 48 | 67 | 1.0 | 3.0 | 0.00 | 0.00 | 0.00 | 64 | 1003.5 |
| 20260505085322 | 47 | 11 | 0.0 | 3.0 | 0.00 | 0.00 | 0.00 | 64 | 1003.3 |
| 20260505084837 | 47 | 53 | 1.0 | 3.0 | 0.00 | 0.00 | 0.00 | 65 | 1003.2 |
| 20260505084345 | 47 | 46 | 1.0 | 2.0 | 0.00 | 0.00 | 0.00 | 65 | 1003.1 |
| 20260505083845 | 47 | 39 | 0.0 | 3.0 | 0.00 | 0.00 | 0.00 | 66 | 1003.1 |
| 20260505083333 | 47 | 66 | 1.0 | 5.0 | 0.00 | 0.00 | 0.00 | 66 | 1003.1 |
| 20260505082824 | 46 | 11 | 2.0 | 5.0 | 0.00 | 0.00 | 0.00 | 67 | 1003.0 |
| 20260505082333 | 46 | 77 | 1.0 | 3.0 | 0.00 | 0.00 | 0.00 | 68 | 1002.8 |
| 20260505081830 | 46 | 52 | 1.0 | 5.0 | 0.00 | 0.00 | 0.00 | 69 | 1002.7 |
| 20260505081413 | 45 | 15 | 2.0 | 5.0 | 0.00 | 0.00 | 0.00 | 70 | 1002.7 |
| 20260505080829 | 45 | 355 | 1.0 | 4.0 | 0.00 | 0.00 | 0.00 | 72 | 1002.6 |
| 20260505080334 | 44 | 306 | 1.0 | 4.0 | 0.00 | 0.00 | 0.00 | 73 | 1002.5 |
| 20260505075828 | 44 | 350 | 1.0 | 3.0 | 0.00 | 0.00 | 0.00 | 74 | 1002.3 |
| 20260505075323 | 44 | 335 | 1.0 | 4.0 | 0.00 | 0.00 | 0.00 | 74 | 1002.3 |
| 20260505074839 | 44 | 338 | 1.0 | 4.0 | 0.00 | 0.00 | 0.00 | 74 | 1002.1 |
| 20260505074330 | 44 | 301 | 1.0 | 11.0 | 0.00 | 0.00 | 0.00 | 74 | 1002.0 |
| 20260505073821 | 44 | 298 | 1.0 | 11.0 | 0.00 | 0.00 | 0.00 | 75 | 1001.8 |
| 20260505073330 | 44 | 294 | 6.0 | 11.0 | 0.00 | 0.00 | 0.00 | 74 | 1001.8 |
| 20260505072822 | 44 | 288 | 5.0 | 10.0 | 0.00 | 0.00 | 0.00 | 74 | 1001.7 |
| 20260505072334 | 44 | 291 | 6.0 | 10.0 | 0.00 | 0.00 | 0.00 | 74 | 1001.7 |
| 20260505071823 | 44 | 298 | 5.0 | 9.0 | 0.00 | 0.00 | 0.00 | 73 | 1001.7 |
| 20260505071332 | 44 | 305 | 5.0 | 10.0 | 0.00 | 0.00 | 0.00 | 73 | 1001.7 |
| 20260505070842 | 45 | 293 | 5.0 | 11.0 | 0.00 | 0.00 | 0.00 | 72 | 1001.5 |
| 20260505070326 | 45 | 310 | 4.0 | 11.0 | 0.00 | 0.00 | 0.00 | 71 | 1001.5 |
| 20260505065822 | 46 | 305 | 4.0 | 9.0 | 0.00 | 0.00 | 0.00 | 71 | 1001.5 |
| 20260505065316 | 47 | 292 | 5.0 | 8.0 | 0.00 | 0.00 | 0.00 | 70 | 1001.5 |
| 20260505064833 | 47 | 301 | 3.0 | 9.0 | 0.00 | 0.00 | 0.00 | 68 | 1001.6 |
| 20260505064318 | 48 | 333 | 3.0 | 10.0 | 0.00 | 0.00 | 0.00 | 67 | 1001.7 |
| 20260505063829 | 48 | 320 | 4.0 | 10.0 | 0.00 | 0.00 | 0.00 | 66 | 1001.8 |
| 20260505063324 | 49 | 302 | 3.0 | 6.0 | 0.00 | 0.00 | 0.00 | 65 | 1001.7 |
| 20260505062833 | 50 | 306 | 2.0 | 12.0 | 0.00 | 0.00 | 0.00 | 65 | 1001.7 |
| 20260505062327 | 50 | 11 | 4.0 | 12.0 | 0.00 | 0.00 | 0.00 | 66 | 1001.5 |
| 20260505061822 | 50 | 317 | 5.0 | 12.0 | 0.00 | 0.00 | 0.00 | 65 | 1001.3 |
| 20260505061337 | 50 | 281 | 6.0 | 12.0 | 0.00 | 0.00 | 0.00 | 64 | 1001.2 |
| 20260505060829 | 51 | 277 | 7.0 | 10.0 | 0.00 | 0.00 | 0.00 | 64 | 1001.2 |
| 20260505060326 | 51 | 281 | 5.0 | 10.0 | 0.00 | 0.00 | 0.00 | 65 | 1001.2 |
| 20260505055829 | 51 | 282 | 6.0 | 10.0 | 0.00 | 0.00 | 0.00 | 65 | 1001.0 |
| 20260505055343 | 51 | 309 | 4.0 | 6.0 | 0.00 | 0.00 | 0.00 | 65 | 1001.0 |
| 20260505054851 | 51 | 304 | 2.0 | 4.0 | 0.00 | 0.00 | 0.00 | 62 | 1001.0 |
| 20260505054336 | 51 | 287 | 1.0 | 5.0 | 0.00 | 0.00 | 0.00 | 62 | 1000.9 |
| 20260505053828 | 51 | 334 | 1.0 | 5.0 | 0.00 | 0.00 | 0.00 | 64 | 1001.1 |
| 20260505053326 | 51 | 306 | 3.0 | 5.0 | 0.00 | 0.00 | 0.00 | 64 | 1001.1 |
| 20260505052843 | 51 | 303 | 1.0 | 5.0 | 0.00 | 0.00 | 0.00 | 65 | 1001.1 |
| 20260505052316 | 51 | 316 | 2.0 | 7.0 | 0.00 | 0.00 | 0.00 | 64 | 1001.1 |
| 20260505051830 | 52 | 316 | 4.0 | 7.0 | 0.00 | 0.00 | 0.00 | 62 | 1001.1 |
| 20260505051323 | 52 | 301 | 3.0 | 9.0 | 0.00 | 0.00 | 0.00 | 61 | 1001.0 |
| 20260505050815 | 52 | 313 | 3.0 | 9.0 | 0.00 | 0.00 | 0.00 | 63 | 1001.0 |
| 20260505050332 | 52 | 338 | 1.0 | 4.0 | 0.00 | 0.00 | 0.00 | 64 | 1000.7 |
| 20260505041355 | 52 | 304 | 2.0 | 4.0 | 0.00 | 0.00 | 0.00 | 69 | 1000.0 |
| 20260505040818 | 53 | 311 | 2.0 | 3.0 | 0.00 | 0.00 | 0.00 | 69 | 999.8 |
| 20260505040315 | 53 | 306 | 1.0 | 5.0 | 0.00 | 0.00 | 0.00 | 67 | 999.9 |